Main page
METAR-TAF:

METAR-TAF

Airports :

Naxos Island National Airport

Naxos, Greece

latitude: 37-04-47N, longitude: 025-22-01E, elevation: 3 m

Current weather observation

The report was made 1 hour and 56 minutes ago, at 03:50 UTC
Wind 4 kt from the East
Temperature 23°C
Humidity 65%
Pressure 1007 hPa
Visibility 10 km or more
no clouds below 1500 m and no cumulonimbus

METAR: LGNX 230350Z 08004KT CAVOK 23/16 Q1007

Time: 08:46 (05:46 UTC)


TAF: missing

Weather observations and forecasts of more than 4000 airports (METAR and TAF reports).

The available stations are represented by yellow and red dots on the map.

Hover mouse over dot to see the name of the station.

Then click to see weather observations and forecasts.

To change the map : click on the green buttons with a black cross to zoom in, on the green button with a dash to zoom out, or on the green arrows for adjacent maps.


METAR-TAF: